Waterville, ME

1:21 PM EDT on October 22, 2019 (GMT -0400)
Waterville Lafleur

Weather History for KWVL - September, 2019

Change the Weather History Date:

Friday, September 20, 2019

  Actual Average Record
Temperature  
Mean Temperature 59 °F -  
Max Temperature 78 °F 70 °F 89 °F (1985)
Min Temperature 41 °F 44 °F 29 °F (1979)
Degree Days  
Heating Degree Days 6    
Growing Degree Days 9 (Base 50)    
Moisture  
Dew Point 50 °F    
Average Humidity 77    
Maximum Humidity 100    
Minimum Humidity 50    
Precipitation  
Precipitation 0.00 in - - ()
Sea Level Pressure  
Sea Level Pressure 30.17 in    
Wind  
Wind Speed 1 mph (West)    
Max Wind Speed 7 mph    
Max Gust Speed -    
Visibility 9 miles    
Events      
Averages and records for this station are not official NWS values.
T = Trace of Precipitation, MM = Missing Value Source: NWS Daily Summary

Daily Weather History Graph

Daily Weather History Graph

Search for Another Location

Airport or City:

Astronomy

Sep. 20, 2019 Rise Set
Actual Time 6:23 AM EDT 6:40 PM EDT
Civil Twilight 5:54 AM EDT 7:09 PM EDT
Nautical Twilight 5:19 AM EDT 7:43 PM EDT
Astronomical Twilight 4:44 AM EDT 8:18 PM EDT
Moon 10:13 PM EDT (9/20) 12:38 PM EDT (9/20)
Length of Visible Light 13h 15m
Length of Day
12h 17m
Waning Gibbous, 65% of the Moon is Illuminated
Sep 20
Waning Gibbous
Sep 21
Last Quarter
Sep 28
New
Oct 5
First Quarter
Oct 13
Full

Hourly Weather History & Observations

Time (EDT) Temp. Dew Point Humidity Pressure Visibility Wind Dir Wind Speed Gust Speed Precip Events Conditions
12:56 AM 44.1 °F 43.0 °F 96% 30.26 in 10.0 mi Calm Calm - N/A   Clear
1:56 AM 42.1 °F 41.0 °F 96% 30.25 in 10.0 mi Calm Calm - N/A   Clear
2:56 AM 41.0 °F 41.0 °F 100% 30.24 in 10.0 mi Calm Calm - N/A   Clear
3:56 AM 42.1 °F 42.1 °F 100% 30.23 in 10.0 mi Calm Calm - N/A   Clear
4:34 AM 42.8 °F 41.0 °F 93% 30.14 in 1.8 mi Calm Calm - N/A   Clear
4:43 AM 42.8 °F 41.0 °F 93% 30.14 in 3.0 mi Calm Calm - N/A   Clear
4:56 AM 41.0 °F 41.0 °F 100% 30.22 in 10.0 mi Calm Calm - N/A   Clear
5:56 AM 42.1 °F 42.1 °F 100% 30.22 in 10.0 mi Calm Calm - N/A   Clear
6:56 AM 41.0 °F 41.0 °F 100% 30.22 in 10.0 mi Calm Calm - N/A   Clear
7:56 AM 45.0 °F 44.1 °F 97% 30.23 in 10.0 mi Calm Calm - N/A   Clear
8:56 AM 53.1 °F 48.9 °F 86% 30.23 in 10.0 mi Calm Calm - N/A   Clear
9:56 AM 60.1 °F 53.1 °F 78% 30.22 in 10.0 mi Calm Calm - N/A   Clear
10:56 AM 66.9 °F 55.0 °F 66% 30.20 in 10.0 mi Calm Calm - N/A   Clear
11:56 AM 71.1 °F 54.0 °F 55% 30.18 in 10.0 mi SW 4.6 mph - N/A   Clear
12:56 PM 72.0 °F 55.0 °F 55% 30.15 in 10.0 mi Variable 3.5 mph - N/A   Clear
1:56 PM 75.0 °F 55.9 °F 51% 30.13 in 10.0 mi WSW 4.6 mph - N/A   Clear
2:56 PM 77.0 °F 57.0 °F 50% 30.10 in 10.0 mi SW 6.9 mph - N/A   Clear
3:56 PM 75.9 °F 57.9 °F 54% 30.09 in 8.0 mi WSW 5.8 mph - N/A   Clear
4:56 PM 73.9 °F 57.9 °F 57% 30.08 in 10.0 mi SW 4.6 mph - N/A   Clear
5:56 PM 69.1 °F 60.1 °F 73% 30.09 in 10.0 mi WSW 4.6 mph - N/A   Clear
6:56 PM 69.1 °F 55.9 °F 63% 30.10 in 8.0 mi West 3.5 mph - N/A   Clear
7:56 PM 64.9 °F 55.0 °F 70% 30.11 in 10.0 mi West 4.6 mph - N/A   Clear
8:56 PM 63.0 °F 54.0 °F 72% 30.12 in 10.0 mi NW 5.8 mph - N/A   Clear
9:56 PM 64.9 °F 51.1 °F 61% 30.13 in 10.0 mi WNW 6.9 mph - N/A   Clear
10:56 PM 64.9 °F 51.1 °F 61% 30.13 in 10.0 mi NW 6.9 mph - N/A   Clear
11:56 PM 64.0 °F 51.1 °F 63% 30.13 in 10.0 mi WNW 3.5 mph - N/A   Clear